Denver, CO

12:10 PM MDT on April 25, 2017 (GMT -0600)
Front Range

Weather History for KFTG - April, 2013

Change the Weather History Date:

Friday, April 12, 2013

  Actual Average (KBKF) Record (KBKF)
Temperature  
Mean Temperature 46 °F -  
Max Temperature 59 °F 57 °F 77 °F (2003)
Min Temperature 32 °F 32 °F 6 °F (1997)
Degree Days  
Heating Degree Days 20    
Moisture  
Dew Point 32 °F    
Average Humidity 84    
Maximum Humidity 100    
Minimum Humidity 29    
Precipitation  
Precipitation 0.00 in - - ()
Sea Level Pressure  
Sea Level Pressure 29.92 in    
Wind  
Wind Speed 6 mph (SSE)    
Max Wind Speed 36 mph    
Max Gust Speed 41 mph    
Visibility 10 miles    
Events      
Averages and records for this station are not official NWS values.
T = Trace of Precipitation, MM = Missing Value Source: NWS Daily Summary

Daily Weather History Graph

Daily Weather History Graph

Search for Another Location

Airport or City:

Trip Planner

Search our weather history database for the weather conditions in past years. The results will help you decide how hot, cold, wet, or windy it might be!

Date:

Astronomy

Apr. 12, 2013 Rise Set
Actual Time 6:24 AM MDT 7:33 PM MDT
Civil Twilight 5:56 AM MDT 8:01 PM MDT
Nautical Twilight 5:23 AM MDT 8:34 PM MDT
Astronomical Twilight 4:49 AM MDT 9:09 PM MDT
Moon 7:36 AM MDT (4/12) 10:06 PM MDT (4/12)
Length of Visible Light 14h 04m
Length of Day
13h 09m
Waxing Crescent, 5% of the Moon is Illuminated
Apr 12
Waxing Crescent
Apr 18
First Quarter
Apr 25
Full
May 2
Last Quarter
May 9
New

Hourly Weather History & Observations

Time (MDT) Temp. Windchill Dew Point Humidity Pressure Visibility Wind Dir Wind Speed Gust Speed Precip Events Conditions
12:19 AM 35.6 °F 31.7 °F 32.0 °F 87% 29.92 in 10.0 mi ESE 4.6 mph - N/A   Scattered Clouds
12:39 AM 35.6 °F 31.7 °F 32.0 °F 87% 29.92 in 10.0 mi SE 4.6 mph - N/A   Mostly Cloudy
12:59 AM 35.6 °F 32.8 °F 32.0 °F 87% 29.93 in 10.0 mi South 3.5 mph - N/A   Mostly Cloudy
1:19 AM 35.6 °F 31.7 °F 32.0 °F 87% 29.93 in 10.0 mi South 4.6 mph - N/A   Overcast
1:39 AM 35.6 °F 30.7 °F 32.0 °F 87% 29.93 in 10.0 mi South 5.8 mph - N/A   Overcast
1:59 AM 35.6 °F 32.8 °F 32.0 °F 87% 29.93 in 10.0 mi South 3.5 mph - N/A   Overcast
2:19 AM 33.8 °F 29.6 °F 32.0 °F 93% 29.92 in 10.0 mi SE 4.6 mph - N/A   Scattered Clouds
2:39 AM 35.6 °F 32.8 °F 32.0 °F 87% 29.92 in 10.0 mi South 3.5 mph - N/A   Scattered Clouds
2:59 AM 33.8 °F 30.8 °F 32.0 °F 93% 29.92 in 10.0 mi SSE 3.5 mph - N/A   Scattered Clouds
3:19 AM 33.8 °F - 32.0 °F 93% 29.91 in 10.0 mi Calm Calm - N/A   Scattered Clouds
3:39 AM 32.0 °F 27.5 °F 30.2 °F 93% 29.91 in 10.0 mi SE 4.6 mph - N/A   Mostly Cloudy
3:59 AM 33.8 °F 30.8 °F 30.2 °F 87% 29.90 in 10.0 mi South 3.5 mph - N/A   Mostly Cloudy
4:19 AM 33.8 °F 30.8 °F 32.0 °F 93% 29.90 in 10.0 mi SSE 3.5 mph - N/A   Mostly Cloudy
4:39 AM 33.8 °F - 32.0 °F 93% 29.91 in 10.0 mi Calm Calm - N/A   Overcast
4:59 AM 35.6 °F 32.8 °F 32.0 °F 87% 29.90 in 10.0 mi SE 3.5 mph - N/A   Overcast
5:19 AM 35.6 °F 32.8 °F 32.0 °F 87% 29.90 in 10.0 mi ESE 3.5 mph - N/A   Overcast
5:39 AM 35.6 °F 30.7 °F 32.0 °F 87% 29.89 in 10.0 mi ESE 5.8 mph - N/A   Overcast
5:59 AM 33.8 °F 26.4 °F 32.0 °F 93% 29.89 in 10.0 mi ESE 9.2 mph - N/A   Mostly Cloudy
6:19 AM 33.8 °F 27.7 °F 32.0 °F 93% 29.89 in 10.0 mi SE 6.9 mph - N/A   Scattered Clouds
6:39 AM 32.0 °F 25.6 °F 32.0 °F 100% 29.89 in 10.0 mi SE 6.9 mph - N/A   Clear
6:59 AM 32.0 °F 26.4 °F 32.0 °F 100% 29.89 in 10.0 mi SE 5.8 mph - N/A   Clear
7:00 AM 32.0 °F 26.4 °F 32.0 °F 100% 29.90 in 10.0 mi SSE 5.8 mph - N/A   Clear
9:59 AM 44.6 °F 43.1 °F 35.6 °F 71% 29.89 in 40.0 mi West 3.5 mph - N/A   Mostly Cloudy
10:55 AM 48.2 °F - 33.8 °F 58% 29.89 in 40.0 mi SW 9.2 mph - N/A   Mostly Cloudy
11:50 AM 55.4 °F - 32.0 °F 41% 29.89 in 40.0 mi WSW 4.6 mph - N/A   Mostly Cloudy
12:50 PM 59.0 °F - 26.6 °F 29% 29.88 in 50.0 mi WNW 11.5 mph 21.9 mph N/A   Scattered Clouds
1:47 PM 59.0 °F - 26.6 °F 29% 29.88 in 50.0 mi West 8.1 mph 17.3 mph N/A   Scattered Clouds
2:48 PM 51.8 °F - 39.2 °F 62% 29.90 in 40.0 mi North 35.7 mph 41.4 mph N/A   Mostly Cloudy
3:59 PM 50.0 °F - 37.4 °F 62% 29.93 in 40.0 mi NNE 23.0 mph 29.9 mph N/A   Scattered Clouds
9:19 PM 35.6 °F 30.7 °F 32.0 °F 87% 29.99 in 10.0 mi SE 5.8 mph - N/A   Clear
9:39 PM 33.8 °F 27.0 °F 32.0 °F 93% 29.99 in 10.0 mi SE 8.1 mph - N/A   Clear
9:59 PM 33.8 °F 27.0 °F 32.0 °F 93% 29.99 in 10.0 mi SE 8.1 mph - N/A   Clear
10:18 PM 33.8 °F 27.7 °F 32.0 °F 93% 29.99 in 10.0 mi SE 6.9 mph - N/A   Clear
10:39 PM 33.8 °F 26.4 °F 32.0 °F 93% 29.99 in 10.0 mi SE 9.2 mph - N/A   Clear
10:58 PM 33.8 °F 25.8 °F 32.0 °F 93% 29.99 in 10.0 mi SE 10.4 mph - N/A   Clear
11:19 PM 33.8 °F 25.3 °F 32.0 °F 93% 29.98 in 10.0 mi SSE 11.5 mph - N/A   Clear
11:39 PM 33.8 °F 25.3 °F 32.0 °F 93% 29.97 in 10.0 mi SSE 11.5 mph - N/A   Clear
11:59 PM 33.8 °F 25.8 °F 32.0 °F 93% 29.97 in 10.0 mi SSE 10.4 mph - N/A   Clear